パンスターズ彗星

P/2021 C2 ( PanSTARRS )

English version
Home page
Updated on June 14, 2021

---------------------------------------------------------------------

・ プロフィール

発見日 2021年2月12日
発見光度 22.1等
発見者 Pan-STARRS 1 telescope (Haleakala)

・ 写真集

・ 軌道要素

Epoch 2021 Mar. 7.0 TT = JDT 2459280.5
T 2021 Feb. 24.92290 TT                                 Rudenko
q   4.8902565            (2000.0)            P               Q
n   0.03344298     Peri.   78.85544     -0.75758554     -0.55569375
a   9.5411212      Node    66.49776     +0.34989720     -0.78861315
e   0.4874547      Incl.   21.92685     +0.55103185     -0.26323708
P  29.5
From 47 observations 2021 Jan. 17-May 23, mean residual 0".4.

・ 光度変化

        m1 = 11.5 + 5 logΔ + 10.0 log r

---------------------------------------------------------------------

軌道要素はM.P.E.C. 2021-L04に掲載されたものです。
光度グラフはComet for Windowsで作成したものです。

---------------------------------------------------------------------

Copyright(C) Seiichi Yoshida (comet@aerith.net). All rights reserved.